Regional Weather Roundup
Issued by NWS Upton, NY

Current Version | Previous Version | Graphics & Text | Print | Product List | Glossary Off
Versions: 1 2 3 4 5 6 7 8 9 10 11 12 13 14 15 16 17 18 19 20 21 22 23 24 25 26 27 28 29 30 31 32 33 34 35 36 37 38 39 40 41 42 43 44 45 46 47 48 49 50
176 ASUS41 KOKX 032008 RWROKX REGIONAL WEATHER ROUNDUP NATIONAL WEATHER SERVICE NEW YORK NY 300 PM EST SAT DEC 03 2016 NOTE: "FAIR" INDICATES FEW OR NO CLOUDS BELOW 12,000 FEET WITH NO SIGNIFICANT WEATHER AND/OR OBSTRUCTIONS TO VISIBILITY. NYZ071-072-176-178-NJZ106-104-032100- NEW YORK CITY METRO AREA CITY SKY/WX TMP DP RH WIND PRES REMARKS Central Park PTSUNNY 46 25 43 W10G26 30.05R Wall St Helipt CLEAR 49 27 42 NW9 30.05R Bronx Bot Gard N/A 46 27 46 NW5 30.05R LaGuardia APRT MOSUNNY 49 28 44 NW26G36 30.03R Kennedy INTL PTSUNNY 49 24 37 NW24G31 30.03S Breezy Point N/A 46 N/A N/A NW17G24 N/A Newark/Liberty PTSUNNY 47 27 45 NW18G26 30.04R Teterboro PTSUNNY 47 26 44 NW14G28 30.03R $$ NYZ177-179-078>081-032100- LONG ISLAND NEW YORK CITY SKY/WX TMP DP RH WIND PRES REMARKS Jones Beach N/A 46 N/A N/A NW22G30 N/A Matinecock PT NOT AVBL Farmingdale SUNNY 47 25 42 NW17G31 30.01S MacArthur/ISP PTSUNNY 46 26 45 NW16G25 29.99R Shirley PTSUNNY 46 26 45 NW13G22 30.00R Westhampton MOSUNNY 47 26 44 NW15G22 29.99S Southampton N/A 46 32 57 NW12 29.95S Bridgehampton NOT AVBL East Hampton CLOUDY 44 27 51 NW13G23 29.97R Montauk N/A 45 27 49 W17G30 29.97R $$ NYZ052-065-067-032100- HUDSON VALLEY CITY SKY/WX TMP DP RH WIND PRES REMARKS White Plains MOSUNNY 45 25 45 NW22G36 29.99S Newburgh PTSUNNY 43 28 56 NW14 30.04R Montgomery CLOUDY 44 27 51 NW12G20 30.03R Poughkeepsie PTSUNNY 43 25 49 NW8 30.02R Albany MOSUNNY 38 24 57 NW15G26 30.03R WCI 29 $$ NJZ001-105-106-008-010-013-015-019>022-104-032100- NEW JERSEY CITY SKY/WX TMP DP RH WIND PRES REMARKS Newark/Liberty PTSUNNY 47 27 45 NW18G26 30.04R Teterboro PTSUNNY 47 26 44 NW14G28 30.03R Caldwell CLOUDY 46 26 45 NW12G17 30.05R Somerville PTSUNNY 48 25 40 NW22G29 30.04S Linden CLOUDY 47 28 45 NW17G24 30.05R Sussex CLOUDY 43 28 55 NW8 30.05S Andover N/A 43 26 51 N6 30.05R Trenton PTSUNNY 49 25 39 NW12G22 30.06S Millville SUNNY 50 32 50 NW15G29 30.09R Atlantic City SUNNY 51 27 39 NW24G32 30.06R Wrightstown NOT AVBL Toms River MOSUNNY 48 28 46 NW15G21 30.06R Belmar MOSUNNY N/A N/A N/A NW25G35 30.04R $$ PAZ047>061-062-071-032100- EASTERN PENNSYLVANIA CITY SKY/WX TMP DP RH WIND PRES REMARKS Philadelphia PTSUNNY 51 29 42 NW18G25 30.11R Allentown CLOUDY 47 27 45 NW15G22 30.08R Scranton CLOUDY 41 28 60 NW12G23 30.07R $$ CTZ002-004>006-009-010-012-RIZ004-006-007-MAZ004-011-015-032100- SOUTHERN NEW ENGLAND IN CT CITY SKY/WX TMP DP RH WIND PRES REMARKS Bradley INTL PTSUNNY 41 23 48 W16 29.97R Hartford CLOUDY 43 25 49 NW15G24 29.99R Danbury PTSUNNY 43 25 49 NW13G20 30.00R Wtrbury/Oxford PTSUNNY 43 25 49 NW12G23 29.98S Bridgeport CLOUDY 47 26 44 NW12 29.99R Meriden CLOUDY 44 25 47 N10 29.99R New Haven PTSUNNY 45 27 49 NW10 29.99R Chester N/A 41 25 52 NW17G25 29.96R Groton CLOUDY 48 24 39 NW23G35 29.95R Wilimantic CLOUDY 44 24 45 NW13G29 29.96R IN RI CITY SKY/WX TMP DP RH WIND PRES REMARKS Providence CLOUDY 45 24 43 NW12G21 29.92R Block Island MOSUNNY 44 28 53 NW20G28 29.94R Westerly CLOUDY 45 23 42 NW14G25 29.95R IN MA CITY SKY/WX TMP DP RH WIND PRES REMARKS Boston MOCLDY 43 24 47 W14G22 29.89R Worcester CLOUDY 37 23 56 W20G25 29.90R WCI 27 Westfield CLOUDY 41 23 48 NW17G23 29.96R Provincetown CLOUDY 44 29 55 NW20G29 29.87R Nantucket MOSUNNY 45 26 47 NW20G29 29.87R $$ ANZ330-335-338-340-345-350-353-355-032100- COASTAL MARINE OBSERVATIONS STATION/POSITION TIME SKY/WX TEMP WIND PRES VSBY WAVE AIR SEA DIR/SP/G HT/PER (UTC) (F) (DEG/KT/KT) (MB) (MI) (FT/S) NY HARB ENTRANCE 1850 48 55 310/ 23/ 29 1016.0 4/ 4 20 S FIRE ISLAND 1850 47 54 310/ 25/ 29 1015.2 5/ 5 GREAT SOUTH BAY 1930 45 45 N/A 23 SSW MONTAUK P 1850 47 56 300/ 25/ 31 1013.8 7/ 6 15 E BARNEGAT LI 1930 54 N/A 5/ 5 HUDSON CANYON 1850 49 59 1014.5 9/ 7 KINGS POINT 1948 46 48 1016.5 EXECUTION ROCKS 1930 49 300/ 21/ 29 N/A CENTRAL LI SOUND 1915 46 51 310/ 19/ 23 N/A 3/ 5 EASTERN LI SOUND NOT AVBL ROBBINS REEF 1948 46 320/ 23/ 31 1016.9 $$ >>>>>>>>>>>>>>>>>>>>>>>>>>>> KEY <<<<<<<<<<<<<<<<<<<<<<<<<<< > < > SKY/WX - Sky Condition/Present Weather < > TMP - Temperature in Fahrenheit < > DP - Dew Point in Fahrenheit < > RH - Relative Humidity in Percent < > WIND - Direction (from) and Speed in MPH < > PRES - Mean Sea Level Pressure (inches of Hg) < > WCI - Wind Chill Index < > VSB - VISIBILITY IN MILES < > HX - HEAT INDEX < > TC - TEMPERATURE IN CELSIUS < > VRB - VARIABLE WIND DIRECTION < > < >>>>>>>>>>>>>>>>>>>>>>>>>>>> KEY <<<<<<<<<<<<<<<<<<<<<<<<<<<

USA.gov is the U.S. government's official web portal to all federal, state and local government web resources and services.